SP5AP-3 Weather Reports


Display with metric or nautical units.
time (UTC)temp
F
wind
direction
speed
MPH
gust
MPH
rain 1hr
in
rain 24hr
in
rain mn
in
humidity
%
barometer
mb
20260904034840 61 12 0.0 2.0 0.00 0.02 0.02 8 1011.2
20260904034340 61 222 1.0 2.0 0.00 0.02 0.02 8 1011.2
20260904033840 61 8 0.0 1.0 0.00 0.02 0.02 8 1011.2
20260904033339 61 354 0.0 1.0 0.00 0.02 0.02 8 1011.6
20260904032839 61 343 0.0 1.0 0.00 0.02 0.02 8 1011.3
20260904032339 61 319 0.0 1.0 0.00 0.02 0.02 8 1011.5
20260904031838 61 10 0.0 1.0 0.00 0.02 0.02 8 1011.6
20260904031338 62 294 0.0 1.0 0.00 0.02 0.02 8 1011.5
20260904030838 62 329 0.0 1.0 0.00 0.02 0.02 8 1011.5
20260904030337 62 240 1.0 2.0 0.00 0.02 0.02 8 1011.7
20260904025837 62 275 1.0 2.0 0.00 0.02 0.02 8 1011.4
20260904025337 62 0 0.0 0.0 0.00 0.02 0.02 8 1011.6
20260904024836 62 295 0.0 1.0 0.00 0.02 0.02 8 1011.4
20260904024336 61 358 0.0 1.0 0.00 0.02 0.02 8 1011.6
20260904023836 62 285 0.0 2.0 0.00 0.02 0.02 8 1011.7
20260904023335 61 0 0.0 0.0 0.00 0.02 0.02 8 1011.3
20260904022835 62 0 0.0 0.0 0.00 0.02 0.02 8 1011.5
20260904022335 62 0 0.0 0.0 0.00 0.02 0.02 8 1011.5
20260904021834 62 0 0.0 0.0 0.00 0.02 0.02 8 1011.6
20260904021334 62 0 0.0 0.0 0.00 0.02 0.02 8 1011.6
20260904020834 62 0 0.0 0.0 0.00 0.02 0.02 8 1011.4
20260904020333 62 0 0.0 0.0 0.00 0.02 0.02 8 1011.5
20260904015833 61 296 1.0 2.0 0.00 0.02 0.02 8 1011.6
20260904015333 61 310 1.0 1.0 0.00 0.02 0.02 8 1011.6
20260904014832 61 313 1.0 2.0 0.00 0.02 0.02 8 1011.5
20260904014332 61 0 0.0 0.0 0.00 0.02 0.02 8 1011.7
20260904013832 61 0 0.0 0.0 0.00 0.02 0.02 8 1011.8
20260904013331 61 74 0.0 1.0 0.00 0.02 0.02 8 1011.7
20260904012831 61 0 0.0 0.0 0.00 0.02 0.02 8 1011.9
20260904012331 61 340 0.0 1.0 0.00 0.02 0.02 8 1011.7
20260904011830 61 34 0.0 1.0 0.00 0.02 0.02 8 1011.7
20260904011330 61 0 0.0 0.0 0.00 0.02 0.02 8 1011.7
20260904010830 61 0 0.0 0.0 0.00 0.02 0.02 8 1011.8
20260904010329 61 0 0.0 0.0 0.00 0.02 0.02 8 1012.0
20260904005829 61 0 0.0 0.0 0.00 0.02 0.02 8 1011.8
20260904005329 61 0 0.0 0.0 0.00 0.02 0.02 8 1011.9
20260904004828 61 289 0.0 1.0 0.00 0.02 0.02 8 1012.0
20260904004328 61 2 0.0 1.0 0.00 0.02 0.02 8 1012.1
20260904003828 61 0 0.0 0.0 0.00 0.02 0.02 8 1012.0
20260904003327 61 0 0.0 0.0 0.00 0.02 0.02 8 1012.0
20260904002827 61 0 0.0 0.0 0.00 0.02 0.02 8 1012.2
20260904002326 61 0 0.0 0.0 0.00 0.02 0.02 8 1012.1
20260904001826 61 330 1.0 2.0 0.00 0.02 0.02 8 1012.0
20260904001326 61 308 0.0 1.0 0.00 0.02 0.02 8 1012.3
20260904000825 61 308 0.0 1.0 0.00 0.02 0.02 8 1012.1
20260904000325 61 7 0.0 1.0 0.00 0.02 0.02 8 1012.4
20260903235825 61 287 0.0 1.0 0.00 0.02 0.02 8 1012.4
20260903235324 61 0 0.0 0.0 0.02 0.02 0.02 8 1012.4
20260903234824 61 342 0.0 1.0 0.02 0.02 0.02 9 1012.6
20260903234324 61 0 0.0 0.0 0.02 0.02 0.02 9 1012.6
20260903233823 61 0 0.0 0.0 0.02 0.02 0.02 9 1012.6
20260903233323 61 0 0.0 0.0 0.02 0.02 0.02 8 1012.4
20260903232823 61 0 0.0 0.0 0.02 0.02 0.02 8 1012.5
20260903232322 61 339 0.0 1.0 0.02 0.02 0.02 8 1012.5
20260903231822 61 0 0.0 0.0 0.02 0.02 0.02 8 1012.5
20260903231322 62 0 0.0 0.0 0.02 0.02 0.02 8 1012.9
20260903230821 62 0 0.0 0.0 0.02 0.02 0.02 8 1012.9
20260903230321 62 0 0.0 0.0 0.02 0.02 0.02 8 1013.2
20260903225821 63 0 0.0 0.0 0.01 0.01 0.01 8 1013.4
20260903225320 65 0 0.0 0.0 0.00 0.00 0.00 7 1013.2
20260903224820 65 0 0.0 0.0 0.00 0.00 0.00 7 1013.1
20260903224320 65 237 1.0 1.0 0.00 0.00 0.00 7 1013.2
20260903223819 66 0 0.0 0.0 0.00 0.00 0.00 7 1013.1
20260903223319 66 32 0.0 1.0 0.00 0.00 0.00 7 1013.1
20260903222819 66 0 0.0 0.0 0.00 0.00 0.00 7 1013.1
20260903222318 66 339 0.0 1.0 0.00 0.00 0.00 7 1013.0
20260903221818 66 0 0.0 0.0 0.00 0.00 0.00 7 1013.0
20260903221318 66 6 1.0 2.0 0.00 0.00 0.00 7 1013.0
20260903220817 66 17 0.0 1.0 0.00 0.00 0.00 7 1013.1
20260903220317 66 0 0.0 0.0 0.00 0.00 0.00 7 1013.0
20260903215817 66 0 0.0 0.0 0.00 0.00 0.00 7 1013.0
20260903215316 66 8 0.0 1.0 0.00 0.00 0.00 7 1013.1
20260903214816 66 0 0.0 0.0 0.00 0.00 0.00 7 1013.2
20260903214316 66 0 0.0 0.0 0.00 0.00 0.00 7 1013.3
20260903213815 66 0 0.0 0.0 0.00 0.00 0.00 7 1013.3
20260903213315 65 0 0.0 0.0 0.00 0.00 0.00 7 1013.3
20260903212815 65 0 0.0 0.0 0.00 0.00 0.00 7 1013.4
20260903212314 65 0 0.0 0.0 0.00 0.00 0.00 7 1013.4
20260903211814 65 25 1.0 2.0 0.00 0.00 0.00 7 1013.4
20260903211314 65 0 0.0 0.0 0.00 0.00 0.00 7 1013.6
20260903210813 65 0 0.0 0.0 0.00 0.00 0.00 7 1013.6
20260903210313 66 349 0.0 1.0 0.00 0.00 0.00 7 1013.4
20260903205813 66 0 0.0 0.0 0.00 0.00 0.00 7 1013.5
20260903205313 66 15 0.0 1.0 0.00 0.00 0.00 7 1013.8
20260903204812 66 0 0.0 0.0 0.00 0.00 0.00 7 1013.6
20260903204312 66 0 0.0 0.0 0.00 0.00 0.00 7 1013.8
20260903203811 66 4 0.0 1.0 0.00 0.00 0.00 7 1013.7
20260903203311 66 0 0.0 0.0 0.00 0.00 0.00 7 1013.7
20260903202811 65 0 0.0 0.0 0.00 0.00 0.00 7 1013.7
20260903202310 65 0 0.0 0.0 0.00 0.00 0.00 7 1013.9
20260903201810 65 0 0.0 0.0 0.00 0.00 0.00 7 1014.0
20260903201310 65 0 0.0 0.0 0.00 0.00 0.00 7 1014.1
20260903200809 65 0 0.0 0.0 0.00 0.00 0.00 7 1014.0
20260903200309 65 0 0.0 0.0 0.00 0.00 0.00 7 1014.0
20260903195809 65 0 0.0 0.0 0.00 0.00 0.00 7 1014.1
20260903195308 66 0 0.0 0.0 0.00 0.00 0.00 7 1013.9
20260903194808 66 0 0.0 0.0 0.00 0.00 0.00 7 1013.9
20260903194308 66 0 0.0 0.0 0.00 0.00 0.00 7 1013.9
20260903193807 66 0 0.0 0.0 0.00 0.00 0.00 7 1014.0
20260903193307 66 0 0.0 0.0 0.00 0.00 0.00 7 1014.1
20260903192807 66 332 0.0 1.0 0.00 0.00 0.00 7 1014.1
20260903192307 66 0 0.0 0.0 0.00 0.00 0.00 7 1014.2
20260903191806 66 0 0.0 0.0 0.00 0.00 0.00 7 1014.2
20260903191306 66 0 0.0 0.0 0.00 0.00 0.00 7 1014.5
20260903190805 66 0 0.0 0.0 0.00 0.00 0.00 7 1014.1
20260903190305 66 0 0.0 0.0 0.00 0.00 0.00 7 1014.4
20260903185805 66 0 0.0 0.0 0.00 0.00 0.00 7 1014.4
20260903185306 66 0 0.0 0.0 0.00 0.00 0.00 7 1014.4
20260903184804 66 0 0.0 0.0 0.00 0.00 0.00 7 1014.3
20260903184304 66 0 0.0 0.0 0.00 0.00 0.00 7 1014.3
20260903183803 66 0 0.0 0.0 0.00 0.00 0.00 7 1014.3
20260903183303 66 0 0.0 0.0 0.00 0.00 0.00 7 1014.3
20260903182803 66 0 0.0 0.0 0.00 0.00 0.00 7 1014.4
20260903182306 66 0 0.0 0.0 0.00 0.00 0.00 7 1014.4
20260903181802 66 0 0.0 0.0 0.00 0.00 0.00 7 1014.4
20260903181302 67 0 0.0 0.0 0.00 0.00 0.00 7 1014.4
20260903180801 67 0 0.0 0.0 0.00 0.00 0.00 7 1014.7
20260903180301 68 0 0.0 0.0 0.00 0.00 0.00 7 1014.4
20260903175801 68 287 1.0 2.0 0.00 0.00 0.00 6 1014.6
20260903175300 68 0 0.0 0.0 0.00 0.00 0.00 6 1014.6
20260903174800 68 0 0.0 0.0 0.00 0.00 0.00 6 1014.8
20260903174300 68 0 0.0 0.0 0.00 0.00 0.00 6 1014.4
20260903173759 68 0 0.0 0.0 0.00 0.00 0.00 6 1014.4
20260903173259 68 0 0.0 0.0 0.00 0.00 0.00 6 1014.3
20260903172759 68 0 0.0 0.0 0.00 0.00 0.00 6 1014.3
20260903172258 68 0 0.0 0.0 0.00 0.00 0.00 6 1014.3
20260903171758 68 0 0.0 0.0 0.00 0.00 0.00 6 1014.2
20260903171258 68 0 0.0 0.0 0.00 0.00 0.00 6 1014.1
20260903170757 68 0 0.0 0.0 0.00 0.00 0.00 6 1014.2
20260903170257 68 0 0.0 0.0 0.00 0.00 0.00 6 1014.3
20260903165757 68 0 0.0 0.0 0.00 0.00 0.00 6 1014.2
20260903165256 69 0 0.0 0.0 0.00 0.00 0.00 6 1014.2
20260903164756 69 0 0.0 0.0 0.00 0.00 0.00 6 1014.2
20260903164256 69 0 0.0 0.0 0.00 0.00 0.00 6 1014.4
20260903163755 69 0 0.0 0.0 0.00 0.00 0.00 6 1014.4
20260903163255 69 0 0.0 0.0 0.00 0.00 0.00 6 1014.4
20260903162755 69 0 0.0 0.0 0.00 0.00 0.00 6 1014.3
20260903162254 69 0 0.0 0.0 0.00 0.00 0.00 6 1014.4
20260903161754 70 0 0.0 0.0 0.00 0.00 0.00 6 1014.4
20260903161254 70 0 0.0 0.0 0.00 0.00 0.00 6 1014.4
20260903160754 70 0 0.0 0.0 0.00 0.00 0.00 6 1014.3
20260903160253 70 0 0.0 0.0 0.00 0.00 0.00 6 1014.4
20260903155753 70 0 0.0 0.0 0.00 0.00 0.00 6 1014.4
20260903155252 70 0 0.0 0.0 0.00 0.00 0.00 6 1014.5
20260903154752 71 356 0.0 1.0 0.00 0.00 0.00 6 1014.3
20260903154252 71 339 0.0 1.0 0.00 0.00 0.00 6 1014.3
20260903153751 71 338 0.0 1.0 0.00 0.00 0.00 6 1014.4
20260903153251 71 0 0.0 0.0 0.00 0.00 0.00 6 1014.2
20260903152751 71 0 0.0 0.0 0.00 0.00 0.00 6 1014.3
20260903152250 71 0 0.0 0.0 0.00 0.00 0.00 5 1014.5
20260903151750 71 334 0.0 1.0 0.00 0.00 0.00 5 1014.4
20260903151250 71 0 0.0 0.0 0.00 0.00 0.00 5 1014.6
20260903150749 72 0 0.0 0.0 0.00 0.00 0.00 5 1014.6
20260903150249 72 0 0.0 0.0 0.00 0.00 0.00 5 1014.7
20260903145749 72 0 0.0 0.0 0.00 0.00 0.00 5 1014.8
20260903145248 72 0 0.0 0.0 0.00 0.00 0.00 5 1015.0
20260903144748 72 0 0.0 0.0 0.00 0.00 0.00 5 1014.7
20260903144248 72 0 0.0 0.0 0.00 0.00 0.00 5 1014.8
20260903143747 71 330 0.0 1.0 0.00 0.00 0.00 5 1014.7
20260903143247 72 7 0.0 1.0 0.00 0.00 0.00 5 1015.1
20260903142747 72 296 0.0 1.0 0.00 0.00 0.00 5 1015.0
20260903142246 72 346 0.0 1.0 0.00 0.00 0.00 5 1015.1
20260903141746 72 0 0.0 0.0 0.00 0.00 0.00 5 1015.0
20260903141246 72 354 1.0 2.0 0.00 0.00 0.00 5 1014.9
20260903140745 72 4 0.0 1.0 0.00 0.00 0.00 5 1015.0
20260903140245 73 342 0.0 1.0 0.00 0.00 0.00 5 1015.3
20260903135745 73 239 2.0 3.0 0.00 0.00 0.00 5 1015.1
20260903135244 73 342 0.0 1.0 0.00 0.00 0.00 5 1015.3
20260903134744 73 9 0.0 1.0 0.00 0.00 0.00 5 1015.1
20260903134244 73 347 0.0 2.0 0.00 0.00 0.00 5 1015.2
20260903133743 73 234 1.0 2.0 0.00 0.00 0.00 5 1015.3
20260903133243 73 228 2.0 2.0 0.00 0.00 0.00 5 1015.3
20260903132743 74 0 0.0 0.0 0.00 0.00 0.00 5 1015.0
20260903132242 73 348 0.0 1.0 0.00 0.00 0.00 5 1015.2
20260903131742 73 175 1.0 1.0 0.00 0.00 0.00 5 1015.2
20260903131242 73 37 0.0 1.0 0.00 0.00 0.00 5 1015.3
20260903130741 73 281 0.0 1.0 0.00 0.00 0.00 5 1015.4
20260903130241 72 276 1.0 2.0 0.00 0.00 0.00 5 1015.5
20260903125741 73 342 0.0 1.0 0.00 0.00 0.00 5 1015.5
20260903125241 73 352 0.0 1.0 0.00 0.00 0.00 5 1015.5
20260903124740 72 253 1.0 2.0 0.00 0.00 0.00 5 1015.6
20260903124240 73 0 0.0 0.0 0.00 0.00 0.00 5 1015.6
20260903123739 73 0 0.0 0.0 0.00 0.00 0.00 5 1015.7
20260903123239 73 301 1.0 2.0 0.00 0.00 0.00 5 1015.8
20260903122739 73 231 0.0 2.0 0.00 0.00 0.00 5 1015.7
20260903122238 73 0 0.0 0.0 0.00 0.00 0.00 5 1015.7
20260903121738 73 358 0.0 1.0 0.00 0.00 0.00 5 1015.7
20260903121238 73 200 1.0 1.0 0.00 0.00 0.00 5 1016.0
20260903120738 73 233 2.0 3.0 0.00 0.00 0.00 5 1015.9
20260903120237 72 0 0.0 0.0 0.00 0.00 0.00 5 1015.8
20260903115737 72 348 0.0 1.0 0.00 0.00 0.00 5 1016.0
20260903115237 72 0 0.0 0.0 0.00 0.00 0.00 5 1016.2
20260903114736 72 83 0.0 1.0 0.00 0.00 0.00 5 1016.3
20260903114236 73 0 0.0 0.0 0.00 0.00 0.00 5 1016.0
20260903113736 72 0 0.0 0.0 0.00 0.00 0.00 5 1016.1
20260903113235 73 0 0.0 0.0 0.00 0.00 0.00 5 1016.2
20260903112735 73 352 0.0 1.0 0.00 0.00 0.00 5 1016.3
20260903112235 73 317 0.0 1.0 0.00 0.00 0.00 5 1016.3
20260903111734 72 0 0.0 0.0 0.00 0.00 0.00 5 1016.2
20260903111234 73 0 0.0 0.0 0.00 0.00 0.00 5 1016.6
20260903110734 73 0 0.0 0.0 0.00 0.00 0.00 5 1016.4
20260903110233 74 319 0.0 1.0 0.00 0.00 0.00 5 1016.5
20260903105733 74 328 2.0 3.0 0.00 0.00 0.00 5 1016.2
20260903105233 73 223 1.0 2.0 0.00 0.00 0.00 5 1016.6
20260903104732 73 13 0.0 1.0 0.00 0.00 0.00 5 1016.6
20260903104232 73 0 0.0 0.0 0.00 0.00 0.00 5 1016.7
20260903103732 73 0 0.0 0.0 0.00 0.00 0.00 5 1016.6
20260903103231 72 352 0.0 1.0 0.00 0.00 0.00 5 1016.6
20260903102731 72 0 0.0 0.0 0.00 0.00 0.00 5 1016.7
20260903102231 72 321 0.0 1.0 0.00 0.00 0.00 5 1016.5
20260903101730 72 12 0.0 1.0 0.00 0.00 0.00 5 1016.9
20260903101230 73 0 0.0 0.0 0.00 0.00 0.00 5 1016.9
20260903100730 73 0 0.0 0.0 0.00 0.00 0.00 5 1016.9
20260903100229 72 349 0.0 1.0 0.00 0.00 0.00 5 1016.7
20260903095729 72 205 2.0 3.0 0.00 0.00 0.00 5 1017.1
20260903095229 72 0 0.0 0.0 0.00 0.00 0.00 5 1016.9
20260903094728 72 39 0.0 1.0 0.00 0.00 0.00 5 1017.0
20260903094228 71 265 1.0 3.0 0.00 0.00 0.00 5 1017.0
20260903093728 72 327 0.0 1.0 0.00 0.00 0.00 5 1016.9
20260903093227 73 346 0.0 1.0 0.00 0.00 0.00 5 1017.2
20260903092727 72 354 0.0 1.0 0.00 0.00 0.00 5 1017.0
20260903092227 71 343 0.0 1.0 0.00 0.00 0.00 6 1017.0
20260903091726 71 245 1.0 2.0 0.00 0.00 0.00 5 1017.0
20260903091226 72 299 0.0 1.0 0.00 0.00 0.00 5 1017.1
20260903090726 73 235 2.0 3.0 0.00 0.00 0.00 5 1017.1
20260903090225 73 0 0.0 0.0 0.00 0.00 0.00 5 1017.0
20260903085725 72 330 0.0 1.0 0.00 0.00 0.00 5 1017.1
20260903085225 72 0 0.0 0.0 0.00 0.00 0.00 5 1017.2
20260903084724 72 0 0.0 0.0 0.00 0.00 0.00 6 1017.0
20260903084224 72 0 0.0 0.0 0.00 0.00 0.00 6 1017.1
20260903083724 71 353 0.0 1.0 0.00 0.00 0.00 6 1017.2
20260903083223 72 356 0.0 1.0 0.00 0.00 0.00 6 1017.4
20260903082723 71 10 1.0 3.0 0.00 0.00 0.00 6 1017.1
20260903082223 71 16 0.0 1.0 0.00 0.00 0.00 6 1017.5
20260903081722 71 5 0.0 1.0 0.00 0.00 0.00 6 1017.3
20260903081222 70 0 0.0 0.0 0.00 0.00 0.00 6 1017.4
20260903080722 70 3 0.0 1.0 0.00 0.00 0.00 6 1017.2
20260903080221 68 342 0.0 1.0 0.00 0.00 0.00 6 1017.3
20260903075721 69 229 2.0 3.0 0.00 0.00 0.00 6 1017.4
20260903075221 69 0 0.0 0.0 0.00 0.00 0.00 6 1017.4
20260903074720 69 221 1.0 2.0 0.00 0.00 0.00 6 1017.5
20260903074220 69 309 0.0 1.0 0.00 0.00 0.00 6 1017.3
20260903073720 69 9 0.0 1.0 0.00 0.00 0.00 7 1017.3
20260903073219 69 220 0.0 1.0 0.00 0.00 0.00 7 1017.3
20260903072719 69 277 0.0 1.0 0.00 0.00 0.00 7 1017.1
20260903072219 69 317 0.0 1.0 0.00 0.00 0.00 6 1017.1
20260903071718 68 346 0.0 1.0 0.00 0.00 0.00 7 1017.4
20260903071218 68 266 1.0 1.0 0.00 0.00 0.00 6 1017.1
20260903070718 68 315 0.0 1.0 0.00 0.00 0.00 7 1017.3
20260903070217 67 0 0.0 0.0 0.00 0.00 0.00 7 1017.2
20260903065717 68 0 0.0 0.0 0.00 0.00 0.00 7 1017.1
20260903065217 67 4 1.0 2.0 0.00 0.00 0.00 7 1017.1
20260903064716 67 0 0.0 0.0 0.00 0.00 0.00 7 1017.2
20260903064216 66 0 0.0 0.0 0.00 0.00 0.00 7 1017.1
20260903063715 66 0 0.0 0.0 0.00 0.00 0.00 7 1017.3
20260903063215 65 234 0.0 1.0 0.00 0.00 0.00 7 1017.3
20260903062715 65 226 1.0 2.0 0.00 0.00 0.00 7 1017.1
20260903062215 65 358 0.0 1.0 0.00 0.00 0.00 7 1017.5
20260903061714 65 0 0.0 0.0 0.00 0.00 0.00 7 1017.5
20260903061214 63 0 0.0 0.0 0.00 0.00 0.00 7 1017.3
20260903060714 62 0 0.0 0.0 0.00 0.00 0.00 8 1017.4
20260903060213 61 0 0.0 0.0 0.00 0.00 0.00 8 1017.5
20260903055713 61 0 0.0 0.0 0.00 0.00 0.00 8 1017.4
20260903055212 61 0 0.0 0.0 0.00 0.00 0.00 8 1017.5
20260903054712 60 353 0.0 1.0 0.00 0.00 0.00 8 1017.5
20260903054212 61 0 0.0 0.0 0.00 0.00 0.00 8 1017.5
20260903053711 61 14 0.0 1.0 0.00 0.00 0.00 8 1017.6
20260903053211 60 0 0.0 0.0 0.00 0.00 0.00 8 1017.6
20260903052711 60 0 0.0 0.0 0.00 0.00 0.00 8 1017.4
20260903052211 60 0 0.0 0.0 0.00 0.00 0.00 8 1017.6
20260903051710 60 0 0.0 0.0 0.00 0.00 0.00 8 1017.7
20260903051210 60 0 0.0 0.0 0.00 0.00 0.00 8 1017.4
20260903050710 59 0 0.0 0.0 0.00 0.00 0.00 8 1017.5
20260903050209 59 0 0.0 0.0 0.00 0.00 0.00 8 1017.4
20260903045709 59 0 0.0 0.0 0.00 0.00 0.00 8 1017.3
20260903045209 59 0 0.0 0.0 0.00 0.00 0.00 8 1017.5
20260903044708 59 0 0.0 0.0 0.00 0.00 0.00 8 1017.6
20260903044208 59 0 0.0 0.0 0.00 0.00 0.00 8 1017.5
20260903043708 59 0 0.0 0.0 0.00 0.00 0.00 8 1017.2
20260903043207 59 0 0.0 0.0 0.00 0.00 0.00 8 1017.4
20260903042707 59 0 0.0 0.0 0.00 0.00 0.00 8 1017.3
20260903042207 59 0 0.0 0.0 0.00 0.00 0.00 8 1017.4
20260903041706 59 0 0.0 0.0 0.00 0.00 0.00 8 1017.4
20260903041206 60 0 0.0 0.0 0.00 0.00 0.00 8 1017.3
20260903040706 60 0 0.0 0.0 0.00 0.00 0.00 8 1017.4
20260903040205 60 0 0.0 0.0 0.00 0.00 0.00 8 1017.5
20260903035705 60 0 0.0 0.0 0.00 0.00 0.00 8 1017.5
20260903035204 60 0 0.0 0.0 0.00 0.00 0.00 8 1017.5